TimeCDT,TemperatureF,Dew PointF,Humidity,Sea Level PressureIn,VisibilityMPH,Wind Direction,Wind SpeedMPH,Gust SpeedMPH,PrecipitationIn,Events,Conditions,WindDirDegrees,DateUTC
12:15 AM,59.0,46.4,63,30.13,10.0,WNW,5.8,-,N/A,,Clear,300,2013-08-22 05:15:00
12:35 AM,59.0,44.6,59,30.14,10.0,NW,5.8,-,N/A,,Clear,320,2013-08-22 05:35:00
12:55 AM,57.2,44.6,63,30.14,10.0,NW,5.8,-,N/A,,Clear,320,2013-08-22 05:55:00
1:15 AM,57.2,44.6,63,30.14,10.0,NW,4.6,-,N/A,,Clear,310,2013-08-22 06:15:00
1:35 AM,55.4,44.6,67,30.15,10.0,NW,5.8,-,N/A,,Partly Cloudy,320,2013-08-22 06:35:00
1:55 AM,55.4,44.6,67,30.15,10.0,NW,3.5,-,N/A,,Clear,320,2013-08-22 06:55:00
2:15 AM,55.4,46.4,72,30.15,10.0,Calm,Calm,-,N/A,,Clear,0,2013-08-22 07:15:00
2:35 AM,53.6,46.4,77,30.15,10.0,Calm,Calm,-,N/A,,Clear,0,2013-08-22 07:35:00
2:55 AM,51.8,50.0,94,30.16,10.0,Calm,Calm,-,N/A,,Clear,0,2013-08-22 07:55:00
3:15 AM,50.0,50.0,100,30.16,10.0,Calm,Calm,-,N/A,,Clear,0,2013-08-22 08:15:00
3:35 AM,48.2,48.2,100,30.16,10.0,SW,3.5,-,N/A,,Clear,220,2013-08-22 08:35:00
3:55 AM,50.0,50.0,100,30.16,10.0,SW,3.5,-,N/A,,Clear,230,2013-08-22 08:55:00
4:15 AM,48.2,48.2,100,30.17,10.0,Calm,Calm,-,N/A,,Clear,0,2013-08-22 09:15:00
4:35 AM,50.0,50.0,100,30.17,10.0,SW,3.5,-,N/A,,Partly Cloudy,230,2013-08-22 09:35:00
4:55 AM,48.2,48.2,100,30.17,10.0,WSW,3.5,-,N/A,,Partly Cloudy,240,2013-08-22 09:55:00
5:15 AM,48.2,48.2,100,30.18,10.0,Calm,Calm,-,N/A,,Clear,0,2013-08-22 10:15:00
5:35 AM,48.2,48.2,100,30.18,10.0,SW,3.5,-,N/A,,Clear,230,2013-08-22 10:35:00
5:55 AM,48.2,48.2,100,30.19,10.0,Calm,Calm,-,N/A,,Partly Cloudy,0,2013-08-22 10:55:00
6:15 AM,46.4,46.4,100,30.19,10.0,SW,3.5,-,N/A,,Clear,230,2013-08-22 11:15:00
6:35 AM,46.4,46.4,100,30.20,10.0,SSW,3.5,-,N/A,,Clear,210,2013-08-22 11:35:00
6:55 AM,48.2,48.2,100,30.20,10.0,SW,4.6,-,N/A,,Clear,230,2013-08-22 11:55:00
7:15 AM,48.2,48.2,100,30.21,10.0,Calm,Calm,-,N/A,,Clear,0,2013-08-22 12:15:00
7:35 AM,50.0,48.2,94,30.21,10.0,Calm,Calm,-,N/A,,Clear,0,2013-08-22 12:35:00
7:55 AM,53.6,50.0,88,30.21,10.0,Calm,Calm,-,N/A,,Clear,0,2013-08-22 12:55:00
8:15 AM,55.4,50.0,82,30.22,10.0,Calm,Calm,-,N/A,,Clear,0,2013-08-22 13:15:00
8:35 AM,57.2,51.8,82,30.22,8.0,Calm,Calm,-,N/A,,Clear,0,2013-08-22 13:35:00
8:55 AM,59.0,51.8,77,30.22,10.0,Calm,Calm,-,N/A,,Clear,0,2013-08-22 13:55:00
9:15 AM,62.6,50.0,63,30.22,10.0,Calm,Calm,-,N/A,,Clear,0,2013-08-22 14:15:00
9:35 AM,64.4,50.0,59,30.21,10.0,Calm,Calm,-,N/A,,Clear,0,2013-08-22 14:35:00
9:55 AM,66.2,48.2,52,30.22,10.0,SW,3.5,-,N/A,,Clear,220,2013-08-22 14:55:00
10:15 AM,68.0,48.2,49,30.21,10.0,Calm,Calm,-,N/A,,Clear,0,2013-08-22 15:15:00
10:35 AM,68.0,46.4,46,30.21,10.0,Calm,Calm,-,N/A,,Clear,0,2013-08-22 15:35:00
10:55 AM,69.8,48.2,46,30.21,10.0,WSW,4.6,-,N/A,,Clear,250,2013-08-22 15:55:00
11:15 AM,71.6,44.6,38,30.21,10.0,NNE,3.5,-,N/A,,Clear,30,2013-08-22 16:15:00
11:35 AM,71.6,46.4,41,30.21,10.0,NW,5.8,-,N/A,,Clear,320,2013-08-22 16:35:00
11:55 AM,71.6,46.4,41,30.21,10.0,WNW,4.6,-,N/A,,Clear,300,2013-08-22 16:55:00
12:15 PM,71.6,46.4,41,30.20,10.0,NW,8.1,-,N/A,,Clear,320,2013-08-22 17:15:00
12:35 PM,73.4,44.6,36,30.20,10.0,WNW,3.5,-,N/A,,Clear,300,2013-08-22 17:35:00
12:55 PM,73.4,44.6,36,30.19,10.0,WNW,10.4,18.4,N/A,,Clear,300,2013-08-22 17:55:00
1:15 PM,73.4,44.6,36,30.19,10.0,NW,8.1,-,N/A,,Clear,310,2013-08-22 18:15:00
1:35 PM,75.2,44.6,34,30.18,10.0,North,13.8,17.3,N/A,,Clear,350,2013-08-22 18:35:00
1:55 PM,75.2,44.6,34,30.18,10.0,NW,9.2,17.3,N/A,,Clear,310,2013-08-22 18:55:00
2:15 PM,75.2,44.6,34,30.18,10.0,NW,9.2,-,N/A,,Clear,320,2013-08-22 19:15:00
2:35 PM,75.2,44.6,34,30.17,10.0,NW,10.4,-,N/A,,Clear,310,2013-08-22 19:35:00
2:55 PM,75.2,44.6,34,30.16,10.0,WNW,5.8,-,N/A,,Clear,300,2013-08-22 19:55:00
3:15 PM,75.2,46.4,36,30.16,10.0,North,10.4,-,N/A,,Clear,350,2013-08-22 20:15:00
3:35 PM,75.2,48.2,38,30.16,10.0,NW,9.2,-,N/A,,Clear,320,2013-08-22 20:35:00
3:55 PM,75.2,44.6,34,30.15,10.0,NW,6.9,-,N/A,,Clear,320,2013-08-22 20:55:00
4:15 PM,77.0,46.4,34,30.15,10.0,NNW,3.5,-,N/A,,Clear,340,2013-08-22 21:15:00
4:35 PM,77.0,46.4,34,30.15,10.0,NNW,6.9,-,N/A,,Clear,330,2013-08-22 21:35:00
4:55 PM,77.0,44.6,32,30.14,10.0,North,5.8,-,N/A,,Clear,350,2013-08-22 21:55:00
5:15 PM,77.0,46.4,34,30.14,10.0,NNE,4.6,-,N/A,,Clear,20,2013-08-22 22:15:00
5:35 PM,75.2,44.6,34,30.13,10.0,Calm,Calm,-,N/A,,Clear,0,2013-08-22 22:35:00
5:55 PM,75.2,46.4,36,30.13,10.0,NNW,5.8,-,N/A,,Clear,340,2013-08-22 22:55:00
6:15 PM,77.0,48.2,36,30.12,10.0,NNW,5.8,-,N/A,,Clear,340,2013-08-22 23:15:00
6:35 PM,75.2,48.2,38,30.12,10.0,NW,5.8,-,N/A,,Clear,310,2013-08-22 23:35:00
6:55 PM,75.2,48.2,38,30.12,10.0,Calm,Calm,-,N/A,,Clear,0,2013-08-22 23:55:00
7:15 PM,75.2,48.2,38,30.11,10.0,Calm,Calm,-,N/A,,Clear,0,2013-08-23 00:15:00
7:35 PM,75.2,50.0,41,30.11,10.0,Calm,Calm,-,N/A,,Clear,0,2013-08-23 00:35:00
7:55 PM,75.2,48.2,38,30.11,10.0,Calm,Calm,-,N/A,,Clear,0,2013-08-23 00:55:00
8:15 PM,71.6,50.0,46,30.11,3.0,Calm,Calm,-,N/A,,Haze,0,2013-08-23 01:15:00
8:35 PM,66.2,53.6,64,30.11,1.8,Calm,Calm,-,N/A,,Haze,0,2013-08-23 01:35:00
8:55 PM,66.2,53.6,64,30.11,2.5,Calm,Calm,-,N/A,,Haze,0,2013-08-23 01:55:00
9:15 PM,62.6,55.4,77,30.11,8.0,Calm,Calm,-,N/A,,Clear,0,2013-08-23 02:15:00
9:35 PM,60.8,57.2,88,30.11,10.0,Calm,Calm,-,N/A,,Clear,0,2013-08-23 02:35:00
9:55 PM,59.0,57.2,94,30.12,10.0,Calm,Calm,-,N/A,,Clear,0,2013-08-23 02:55:00
10:15 PM,59.0,55.4,88,30.12,10.0,Calm,Calm,-,N/A,,Clear,0,2013-08-23 03:15:00
10:35 PM,59.0,53.6,82,30.12,10.0,Calm,Calm,-,N/A,,Clear,0,2013-08-23 03:35:00
10:55 PM,57.2,53.6,88,30.12,10.0,Calm,Calm,-,N/A,,Clear,0,2013-08-23 03:55:00
11:15 PM,57.2,53.6,88,30.12,10.0,Calm,Calm,-,N/A,,Clear,0,2013-08-23 04:15:00
11:35 PM,55.4,53.6,94,30.12,10.0,Calm,Calm,-,N/A,,Clear,0,2013-08-23 04:35:00
11:55 PM,55.4,53.6,94,30.11,10.0,SE,3.5,-,N/A,,Clear,140,2013-08-23 04:55:00